Tracking 30313 objects as of 21-Apr-2025
HD Live streaming from Space Station
objects crossing your sky now

COSMOS 1823 DEB

Track COSMOS 1823 DEB now!
10-day predictions


NORAD ID: 20285
Int'l Code: 1987-020DP
Perigee: 1,489.9 km
Apogee: 1,618.9 km
Inclination: 73.6 °
Period: 117.0 minutes
Semi major axis: 7925 km
RCS: 0.0247 m2 (small)
Launch date: February 20, 1987
Source: Commonwealth of Independent States (former USSR) (CIS)
Launch site: PLESETSK MISSILE AND SPACE COMPLEX (PKMTR)

Note: This is SATELLITE DEBRIS
Your satellite tracking list
Your tracking list is empty




NASA's NSSDC Master Catalog

Two Line Element Set (TLE):
1 20285U 87020DP  25108.61664395  .00000490  00000-0  42438-2 0  9996
2 20285  73.6471 336.2495 0081373 101.7760 287.7798 12.30476195546149
Source of the keplerian elements: AFSPC